This demonstration page uses our WeatherBlox Daily Observations layout. Learn more.

Left ArrowRight Arrow

Hourly Observations for December 27, 2016

Temp ( °F °C ) Dew Point ( °F °C ) Humidity (%) Winds ( mph kmh ) Pressure ( in mb ) Visibility ( mi km ) Precip ( " mm )
12:51 am 00:51 Clear 41 5 32 undefined 70 70 SE 8 13 30.28 1025 10 16 0.01 0.25
1:51 am 01:51 Clear 41 5 31 -0.6 67 67 E 8 13 30.27 1025 10 16 N/A
2:51 am 02:51 Clear 40 4.4 31 -0.6 70 70 ESE 8 13 30.27 1025 10 16 N/A
3:51 am 03:51 Clear 40 4.4 30 -1.1 68 68 ESE 10 17 30.27 1025 10 16 0.01 0.25
4:51 am 04:51 Mostly Clear with Light Rain 39 3.9 30 -1.1 70 70 E 9 15 30.27 1025 10 16 0.01 0.25
5:51 am 05:51 Clear 40 4.4 29 -1.7 65 65 ESE 13 20 30.27 1025 10 16 0.01 0.25
6:51 am 06:51 Clear 39 3.9 28 -2.2 65 65 ESE 15 24 30.31 1026 10 16 N/A
7:51 am 07:51 Sunny 41 5 28 -2.2 60 60 ESE 14 22 30.32 1027 10 16 N/A
8:51 am 08:51 Sunny 45 7.2 30 -1.1 56 56 ESE 13 20 30.33 1027 10 16 N/A
9:51 am 09:51 Sunny 47 8.3 32 undefined 56 56 SE 10 17 30.33 1027 10 16 N/A
10:51 am 10:51 Sunny 50 10 33 0.6 52 52 SE 9 15 30.31 1026 10 16 N/A
11:51 am 11:51 Sunny 53 11.7 33 0.6 47 47 SE 7 11 30.27 1025 10 16 N/A
12:51 pm 12:51 Sunny 57 13.9 33 0.6 41 41 S 8 13 30.23 1024 10 16 N/A
1:51 pm 13:51 Sunny 58 14.4 33 0.6 39 39 S 9 15 30.20 1023 10 16 N/A
2:51 pm 14:51 Sunny 59 15 33 0.6 38 38 S 7 11 30.18 1022 10 16 N/A
3:51 pm 15:51 Sunny 59 15 34 1.1 39 39 S 7 11 30.16 1021 10 16 N/A
4:51 pm 16:51 Sunny 56 13.3 35 1.7 46 46 SSE 3 6 30.16 1021 10 16 N/A
5:51 pm 17:51 Clear 50 10 39 3.9 66 66 ENE 3 6 30.18 1022 10 16 N/A
6:51 pm 18:51 Clear 48 8.9 39 3.9 71 71 NE 8 13 30.19 1022 10 16 N/A
7:51 pm 19:51 Clear 48 8.9 38 3.3 68 68 NE 7 11 30.20 1023 10 16 N/A
8:51 pm 20:51 Clear 44 6.7 38 3.3 79 79 ENE 6 9 30.20 1023 10 16 N/A
9:51 pm 21:51 Clear with Light Rain 45 7.2 37 2.8 74 74 E 7 11 30.22 1024 10 16 N/A
10:51 pm 22:51 Clear 42 5.6 38 3.3 85 85 NW 5 7 30.24 1024 10 16 N/A
11:51 pm 23:51 Clear 40 4.4 37 2.8 89 89 NNW 3 6 30.23 1024 10 16 N/A

Powered by AerisWeather